STARLINK-31920, 59907

Orbit data source: Space-Track

STARLINK-31920, 59907 is a payload satellite owned by SpaceX/Seattle (US) in LEO that was launched on Tue, 28 May 2024 UTC via an FALCON 9 launch vehicle from the Air Force Eastern Test Range (AFETR). Payload-class satellites include a variety of spacecraft equipped with specific instruments for various scientific and technological missions. These include communications satellites like Starlink; space stations such as the ISS; scientific satellites like the Hubble; Earth observation satellites from companies like Planet Labs, Umbra, and HawkEye 360; GPS; miniature CubeSats for education and research; and military/defense satellites.

Loading next visibility...
Identifier
59907, 2024-100Y
Orbit
LEO
Country
Flag of USUS
Related business
Manufacturer
SpaceX/Seattle
Mission
Operational Commercial Communications
Bus & Motor
STARLINK V2M, Unknown motor
Mass
730 kg wet, ~700 kg dry
Launch date (UTC)
2024-05-28 (1 year ago)
Launch vehicle
FALCON 9
Launch site
Air Force Eastern Test Range (AFETR)
Object type
Payload
Rocket body
Debris
Shape & HBR
Box + 2 Pan, 17.7 m
Radar Cross Section
33.884 m², Large (>1 m²)

Expand to show TLE details & history
Last TLE update: 1 day ago

TLE from 1 day ago
0 STARLINK-31920
1 59907U 24100Y   25309.04721350 -.00001302  00000-0 -37808-4 0  9996
2 59907  43.0020  76.8674 0000207 297.8590  62.2240 15.27580942 82456
Epoch: 2025-11-05T01:07Z
TLE epoch observation values (Epoch: 2025-11-05T01:07:59.246Z)
Latitude
-0.00006°
Longitude
15.34498°
Altitude
482.756 km
Speed
7.626 km/s
True Right ascension
05h 07m 28s
True Declination
0° 00' 00"
Sunlit
Object was in full shadow at epoch
Visualization orbit readout
Latitude
Unknown
Longitude
Unknown
Altitude
Unknown
Speed
Unknown
Apparent Right ascension
Unknown
Apparent Declination
Unknown
Sunlit
N/A
Visualization observer readout
Local Sidereal Time
21:25:51
Azimuth
Unknown
Elevation
Unknown
Doppler factor
Unknown
Orbital elements
Apogee altitude
485.133 km
Perigee altitude
484.849 km
Semi-major axis
6,863.128 km
Eccentricity
0.00002
Inclination
43.002°
RAAN
76.8674°
Arg. of periapsis
297.859°
True anomaly
62.2261°
Mean anomaly
62.224°
Eccentric anomaly
62.22505°
Mean motion
3.81733 °/min
Orbital period
94.31 mins
BSTAR
-0.000037808
Loading maneuver chart data...
Computing Atmospheric mass density...
Loading historical data...
Loading historical data...
Loading historical data...
Loading historical data...
Loading historical data...
Loading historical data...
Loading historical data...

Documentation

Showing up to 5 results
|